Theta_e
308 309 310 313 318 321 322 320 318 320 320 320 322 322 321 322 324 322 324 323 318 327 336 337 332 331 340 345 350 350 347 353 354 346 345 349 347 346 347 347 347 347 346 342 338 338 337 337 337 338 338 337 335 333 326 320 317 316 316 315 315 315 316 317 315 313 312 311 311 312 311 311 311 312 312 311 311 310 311 310 311 312 317 319 320 326 329 331 333 333 333 333 334 335 336 336 336
308 310 310 316 320 322 323 321 323 325 322 320 321 322 323 323 323 322 324 322 323 336 343 342 340 341 342 340 343 343 345 350 348 345 348 348 347 347 347 348 346 345 345 341 339 338 337 338 337 338 338 337 336 333 327 321 317 316 315 314 315 315 316 317 315 313 312 312 312 312 311 311 311 312 312 312 311 311 311 310 311 312 315 317 320 326 328 330 332 332 332 332 333 334 334 335 335
309 310 311 319 321 321 323 322 327 325 321 320 321 322 321 322 323 325 322 320 333 343 343 342 343 344 343 346 347 343 346 348 347 346 349 348 348 348 348 348 346 346 345 341 339 338 337 338 337 338 338 338 336 333 328 323 318 316 315 314 314 314 316 316 315 314 312 312 311 312 311 311 312 312 312 312 312 311 311 310 310 313 316 318 320 325 327 328 330 330 331 331 332 332 332 332 333
310 311 313 319 320 321 325 327 331 327 322 321 321 323 322 323 324 324 317 321 341 344 341 343 346 344 346 356 352 349 350 348 348 347 349 349 348 349 349 348 347 346 345 342 338 336 337 337 338 338 338 338 336 334 330 325 319 316 315 315 314 314 315 315 316 315 313 312 312 312 311 311 311 312 312 312 312 312 312 311 310 312 317 320 322 324 326 327 328 329 330 330 330 330 331 331 331
311 314 317 321 321 322 324 326 329 325 324 323 321 324 324 322 322 322 316 321 336 339 339 343 351 346 345 351 346 349 352 348 348 347 347 349 349 350 350 348 346 346 345 341 337 335 335 336 338 338 339 338 337 335 332 328 322 319 318 318 317 316 315 315 315 315 314 313 312 311 311 311 311 311 312 312 312 313 312 312 311 310 315 320 323 325 326 327 328 329 329 330 330 330 330 330 330
313 317 320 322 321 320 323 325 325 325 324 323 322 326 326 322 320 319 317 318 325 332 338 341 348 348 346 348 346 348 348 347 347 346 346 349 350 351 350 348 345 345 344 340 335 334 334 336 338 339 339 338 337 336 333 331 328 325 324 323 322 319 317 316 315 315 315 314 312 312 311 311 311 311 312 312 312 312 312 312 312 310 313 319 324 325 326 327 328 329 329 330 330 330 330 330 329
313 319 321 322 321 319 327 330 328 327 325 321 321 324 323 322 319 316 317 318 327 338 343 344 344 348 350 348 348 348 347 348 345 345 347 348 351 351 350 347 345 345 343 339 335 333 334 335 337 339 339 339 338 336 334 333 332 331 330 329 328 325 322 320 317 316 315 315 313 312 312 311 311 311 311 312 312 312 312 312 312 310 311 317 322 325 326 327 328 329 329 330 330 330 330 331 328
315 321 319 322 323 321 325 328 326 327 326 322 320 322 321 321 319 318 319 316 327 340 345 346 341 351 354 346 350 349 348 348 345 346 347 349 350 350 348 345 345 344 341 338 334 333 334 335 337 339 339 340 339 337 336 334 334 333 333 333 332 332 329 327 324 320 317 315 314 314 312 311 311 311 311 311 311 311 311 311 311 311 310 313 320 324 326 326 328 328 329 329 329 330 331 331 328
318 320 318 321 324 322 323 322 322 323 323 321 320 320 319 320 319 319 318 317 332 342 345 346 340 352 354 348 352 350 349 349 347 347 347 349 349 349 347 345 345 344 340 337 334 332 333 336 338 339 339 340 340 338 337 335 334 333 334 334 334 334 333 333 331 328 324 319 316 314 313 312 311 311 312 311 311 311 311 311 312 311 311 311 315 321 324 325 326 327 328 329 329 331 331 331 330
319 320 318 322 324 322 323 322 321 321 320 319 318 318 318 318 318 317 315 323 340 345 344 344 342 350 352 349 351 350 349 349 348 348 348 349 349 349 347 345 345 344 341 337 334 332 332 336 337 339 339 340 340 340 338 336 334 333 333 334 334 334 334 334 333 332 330 326 321 317 314 313 312 311 311 311 311 311 311 312 312 312 312 310 312 317 321 324 325 326 327 328 330 332 332 331 330
320 318 319 324 325 323 324 324 323 323 320 318 317 316 318 317 316 316 318 330 342 344 344 343 348 349 349 350 350 350 349 349 348 347 349 349 349 349 347 346 344 343 342 337 334 332 332 334 337 338 339 340 340 340 340 338 335 334 333 334 334 334 334 334 334 333 332 330 327 322 317 315 314 312 311 311 311 311 311 312 312 312 312 311 309 313 317 320 322 325 327 329 331 332 331 331 330
320 319 322 327 326 325 325 324 323 322 320 318 317 317 317 317 317 318 325 339 344 343 343 341 348 349 349 351 349 349 349 349 348 347 348 348 348 348 348 346 343 342 340 337 334 331 331 332 335 337 338 339 340 341 340 340 338 335 334 333 332 333 334 335 334 333 332 330 329 327 324 319 316 315 313 312 311 312 312 312 312 313 313 312 309 310 314 316 318 324 328 330 332 332 331 331 330
320 319 323 326 324 324 322 320 321 322 321 318 317 317 318 317 318 324 329 338 342 344 343 339 343 347 349 350 349 349 348 349 348 348 348 347 348 348 348 345 342 339 337 336 333 331 330 330 331 334 337 339 340 341 340 340 340 338 334 332 332 333 333 334 334 332 331 330 329 330 329 326 320 318 316 313 312 312 313 314 313 314 314 313 310 309 311 313 317 325 330 331 332 331 331 331 330
319 317 322 324 320 321 319 318 320 319 321 318 316 317 318 318 318 329 335 340 342 343 342 340 341 346 350 350 350 348 348 349 348 348 348 348 348 347 345 343 339 336 336 336 333 331 329 329 330 331 335 338 339 340 341 341 341 339 335 333 334 334 333 334 334 331 330 329 330 331 331 331 326 321 319 316 314 314 314 315 315 316 315 314 312 309 310 312 317 327 331 332 332 331 331 331 331
319 317 322 323 319 319 318 319 319 315 318 318 316 317 318 318 318 324 332 342 345 342 342 342 342 344 350 351 350 348 348 349 348 348 348 348 347 345 344 341 337 335 335 335 333 330 328 328 330 332 332 333 337 338 340 341 340 340 337 335 336 335 334 335 333 329 328 328 330 332 332 332 330 324 321 321 319 316 316 318 319 319 317 315 313 310 309 310 317 328 331 332 332 331 331 331 331
319 317 319 319 318 318 317 317 316 315 318 318 316 317 318 318 319 323 326 336 346 343 342 343 342 342 344 346 347 348 348 348 348 348 348 347 346 345 344 340 336 335 335 335 334 330 327 328 330 331 329 328 333 335 337 338 339 340 338 336 337 336 334 334 332 329 328 330 332 333 334 335 333 327 320 322 323 320 320 322 322 322 318 316 315 313 309 310 318 328 331 331 332 331 330 330 331
318 317 317 317 317 317 317 318 316 316 318 319 317 315 319 318 321 333 335 337 345 344 343 343 343 342 341 341 344 347 348 348 348 348 347 347 346 345 344 342 338 337 337 335 334 330 327 327 328 329 327 326 328 331 333 335 338 339 338 337 337 336 335 333 331 329 330 332 334 335 335 334 333 331 323 320 323 323 324 325 325 324 320 317 317 314 310 311 319 327 330 331 332 331 329 329 330
317 317 318 317 317 316 318 320 315 314 316 317 316 314 318 317 318 332 341 341 343 344 344 345 344 343 342 343 344 346 346 348 348 347 347 346 346 345 344 344 341 341 340 336 334 329 326 327 328 327 325 325 325 327 330 333 336 337 337 336 337 336 334 333 331 331 332 334 335 336 335 331 330 330 324 320 323 326 327 328 327 326 322 318 318 315 311 314 320 327 330 332 332 331 329 328 329
317 317 317 316 317 315 315 317 314 314 315 315 314 315 316 316 315 321 337 342 342 348 349 346 346 346 345 345 346 345 346 348 349 348 347 346 346 345 345 345 344 343 342 338 335 329 325 328 329 327 325 324 324 325 327 332 334 336 337 336 337 335 333 333 332 332 334 335 336 335 334 329 328 327 323 320 323 328 330 330 329 328 324 320 320 317 313 316 322 327 330 332 332 332 330 328 328
316 316 316 317 316 315 314 314 315 315 315 314 314 316 315 317 315 316 333 341 344 352 351 347 347 348 346 347 347 346 346 348 349 348 347 346 345 346 346 345 344 343 341 337 333 329 325 327 329 327 326 325 325 325 326 329 331 334 336 336 337 335 333 333 331 333 336 336 336 335 333 331 329 329 328 324 322 328 332 332 331 329 325 321 321 320 315 316 322 327 329 331 332 332 330 329 328
315 315 317 316 313 314 315 315 316 316 316 314 314 315 316 317 315 320 332 339 344 345 343 343 346 347 346 347 347 345 346 348 348 347 346 345 345 346 345 344 342 341 339 335 331 329 327 326 328 328 327 326 325 325 325 326 328 331 334 335 336 334 333 332 331 335 337 336 335 334 333 332 331 331 332 329 322 325 331 332 331 330 326 323 322 322 319 316 319 325 328 331 332 332 330 329 328
314 314 314 314 313 314 315 315 316 316 316 315 315 316 316 316 316 320 324 329 336 334 332 339 342 343 344 345 347 347 347 347 348 346 345 345 345 345 345 344 343 340 339 338 333 329 326 326 328 329 328 326 326 324 324 324 326 330 333 335 336 333 332 331 333 336 337 335 334 333 333 332 331 330 331 331 325 322 327 330 331 331 327 325 324 323 323 319 317 320 324 329 331 331 329 328 327
316 316 313 313 314 314 314 315 316 317 316 315 315 317 316 315 316 317 316 318 323 322 325 336 340 340 341 342 345 346 347 348 348 346 346 346 345 346 346 346 344 340 338 341 338 330 325 326 329 330 329 328 328 328 328 328 328 331 335 335 334 332 331 331 334 336 336 335 333 333 332 331 331 330 329 330 327 321 324 329 331 331 328 327 326 324 325 324 321 318 320 326 330 330 329 327 327
316 316 314 315 314 313 314 315 315 316 316 315 316 317 316 316 316 316 317 316 318 322 326 335 341 342 342 343 342 342 346 348 348 346 346 346 346 346 346 347 345 340 338 339 340 332 326 326 329 331 329 328 329 330 330 330 329 331 333 334 334 331 330 333 335 336 336 335 333 332 332 331 331 330 330 329 327 322 324 330 331 331 329 327 327 326 325 326 326 323 321 324 328 329 329 327 327
314 315 314 314 314 314 315 315 314 315 315 315 316 316 316 316 316 315 317 317 320 326 331 337 342 343 343 343 341 344 347 348 348 347 347 346 346 346 346 347 345 342 338 339 339 334 329 327 329 330 329 328 330 330 330 329 328 327 328 331 332 330 330 334 336 336 336 334 333 332 331 332 331 330 331 330 327 325 327 330 330 330 330 327 327 327 327 327 327 326 325 325 326 328 328 329 329
314 314 314 313 314 314 314 314 313 315 314 315 316 316 316 316 315 315 316 318 323 329 336 341 343 343 344 343 342 345 347 347 348 347 347 347 346 346 347 346 346 344 339 338 338 335 331 328 328 328 328 329 330 331 331 330 329 327 325 325 328 329 330 334 336 335 335 334 333 332 331 331 331 330 332 331 330 329 328 328 327 328 329 327 327 328 327 328 328 326 327 327 329 330 329 330 330
314 312 313 313 313 313 313 313 314 314 315 315 316 316 316 314 314 316 316 317 323 331 339 342 342 343 344 343 343 345 346 346 347 347 347 347 347 347 347 346 346 345 341 340 340 337 334 331 329 328 328 329 330 331 331 330 329 328 326 323 325 329 331 333 333 330 332 334 332 331 330 331 331 331 332 332 331 331 330 328 327 327 327 326 327 329 328 328 328 327 327 328 330 329 327 328 329
313 312 313 312 311 312 312 312 313 314 315 315 316 316 315 314 314 316 316 318 322 330 341 344 343 344 343 343 344 345 345 345 346 347 347 346 347 347 346 345 344 343 342 342 341 340 337 334 331 328 328 330 330 331 331 331 330 329 329 327 328 331 331 332 330 326 330 333 332 331 330 331 331 331 332 332 331 332 331 329 327 327 326 325 326 328 328 328 328 328 328 329 328 327 326 326 326
313 313 314 315 314 313 313 312 313 315 316 315 315 315 316 316 316 316 315 319 325 332 342 345 344 344 343 343 344 345 345 345 346 346 346 345 346 346 345 344 343 341 342 342 341 341 339 337 335 332 329 329 331 331 331 331 330 330 330 330 329 329 330 331 330 328 331 331 330 331 330 330 331 331 332 332 331 332 331 328 326 326 326 326 326 325 327 328 327 328 329 329 328 327 327 326 325
314 313 313 315 316 316 314 312 314 315 315 316 315 315 319 319 314 314 314 320 332 339 344 345 345 345 343 344 344 345 345 345 345 344 345 346 346 345 343 343 343 341 341 343 343 342 339 337 338 337 331 329 330 330 331 330 331 331 330 331 330 328 328 329 331 331 331 330 330 331 330 330 331 331 331 331 331 331 330 326 325 327 328 328 327 325 325 327 326 327 328 328 328 328 327 328 328
315 312 314 315 313 317 316 312 314 315 314 316 315 314 317 318 314 313 313 323 334 339 344 345 345 346 343 345 345 344 345 344 344 344 345 346 346 345 342 342 343 341 341 342 343 342 338 337 339 338 333 331 331 330 331 330 330 331 331 331 332 331 329 330 332 331 332 331 330 331 330 330 331 330 330 331 331 330 328 326 326 328 330 330 328 327 326 326 326 327 327 328 329 329 330 330 330
318 313 320 321 312 316 317 311 314 314 314 314 315 316 316 317 316 312 313 325 335 337 342 344 344 346 344 345 345 344 345 343 344 345 346 347 346 345 342 341 342 342 341 342 342 341 340 340 340 338 335 336 336 332 332 332 331 332 332 331 332 332 330 330 332 332 332 332 332 332 330 330 331 330 330 331 330 329 329 328 327 328 330 330 329 328 328 327 327 328 328 329 329 330 331 331 331
325 318 321 322 313 314 316 312 312 313 315 314 314 316 316 317 316 311 311 320 332 337 338 341 342 344 345 346 345 344 345 344 344 346 346 347 346 345 343 342 342 342 341 341 341 341 341 341 340 338 337 338 337 334 332 332 332 332 332 332 333 333 331 331 331 331 332 333 333 333 331 331 331 330 330 330 329 330 331 330 329 328 329 330 329 329 331 329 328 329 330 330 330 330 332 331 330
325 321 319 320 315 314 315 315 312 310 314 314 314 315 316 318 315 312 312 315 328 337 336 338 340 341 343 344 344 343 343 343 344 346 347 347 346 345 343 342 342 342 342 341 340 341 341 340 340 338 336 336 336 335 333 333 333 333 333 333 333 333 332 332 332 332 333 333 334 333 332 331 331 331 330 329 330 332 332 332 331 329 328 330 330 330 332 331 330 330 331 330 329 330 331 330 329
321 319 317 318 317 315 314 316 315 312 314 314 314 315 315 316 314 312 314 316 322 328 331 336 337 339 341 342 342 342 341 342 344 345 347 347 347 345 343 342 343 343 342 341 341 341 340 340 340 337 334 333 334 333 333 334 334 333 333 334 334 334 333 333 333 334 334 334 334 333 332 331 331 332 330 329 330 332 332 331 330 329 328 329 330 330 332 332 331 331 331 331 329 329 331 331 330
319 318 317 317 316 315 314 314 315 313 314 315 315 315 315 314 314 314 314 320 323 321 327 334 336 338 339 340 342 341 341 343 343 344 346 346 346 345 345 345 344 344 343 340 340 340 339 340 338 333 331 332 334 334 333 333 334 334 333 334 335 334 334 335 335 335 334 334 333 332 332 332 332 332 331 329 330 332 332 331 329 328 328 328 329 329 331 331 330 330 331 330 329 329 330 331 331
314 314 315 315 313 314 314 315 316 313 313 315 314 313 315 314 316 316 312 319 327 328 330 334 335 337 338 339 341 341 342 343 342 344 346 346 346 346 345 345 345 344 341 338 337 336 337 337 331 327 328 332 335 334 330 329 331 334 333 333 334 334 335 336 335 335 334 334 333 332 332 332 332 332 331 330 329 331 332 331 330 328 329 329 329 327 328 330 330 330 331 331 330 330 330 330 330
312 312 313 313 312 313 314 314 315 314 313 316 314 312 314 314 315 318 315 315 321 325 330 333 334 336 336 338 339 340 341 341 341 342 344 345 345 345 344 344 343 341 338 336 336 334 336 335 326 324 328 331 334 332 325 325 327 329 331 332 334 334 334 335 335 334 333 332 332 332 332 332 332 332 332 330 330 330 331 331 331 330 330 330 329 327 328 329 330 331 331 331 331 331 330 330 330
314 313 314 314 314 314 316 318 319 315 314 317 315 311 315 320 321 321 317 316 318 320 324 327 331 335 336 336 336 337 338 337 337 339 341 343 343 342 342 342 340 337 336 335 336 336 337 335 327 326 328 328 333 331 324 325 326 326 328 330 332 333 333 333 334 333 332 332 332 332 332 332 332 331 331 331 330 330 331 331 331 330 329 330 329 328 329 329 330 331 331 330 331 331 330 330 330
316 315 314 314 314 314 317 323 322 316 315 318 317 319 327 333 333 324 315 317 324 327 326 323 325 330 333 334 333 335 336 335 335 336 337 339 340 341 341 340 338 338 337 336 337 336 335 331 325 326 328 327 330 329 326 326 327 328 329 329 329 331 332 333 334 333 332 332 333 333 332 332 332 332 332 331 330 329 330 331 331 330 329 330 330 329 329 329 330 331 331 330 330 329 330 330 330
319 318 315 315 314 314 317 321 322 322 321 320 322 327 329 334 334 323 317 322 328 329 330 329 327 327 329 331 332 333 334 334 334 334 335 337 338 338 338 338 338 338 337 335 335 333 329 328 326 326 329 329 327 326 326 328 330 331 331 330 330 331 333 333 333 332 332 333 333 333 332 332 332 332 332 331 330 329 329 330 331 330 329 329 329 329 329 329 329 329 330 329 329 329 329 329 329
319 319 317 314 314 315 317 320 325 328 321 316 321 323 320 326 328 320 320 327 329 329 331 331 330 330 330 330 331 332 332 332 333 333 334 334 335 335 336 337 337 337 336 334 334 331 328 328 328 329 331 330 327 325 327 329 332 332 330 330 331 331 332 332 332 332 332 333 333 333 332 332 332 332 332 331 330 329 330 330 330 330 330 329 329 329 328 328 328 328 329 329 329 328 328 328 328
316 319 320 315 314 316 317 320 323 322 318 315 320 323 320 322 322 318 322 328 329 330 331 331 331 331 331 330 330 331 331 331 332 333 333 334 334 334 334 335 335 335 335 334 334 331 330 330 329 330 332 331 327 326 330 331 332 331 328 327 328 328 330 331 331 332 332 333 333 333 332 332 332 332 331 330 330 330 330 329 328 328 330 330 330 329 328 328 328 328 329 329 329 328 327 327 327
317 324 324 317 316 317 319 323 320 320 322 321 324 327 321 317 319 320 324 329 330 331 332 332 331 331 331 331 330 331 331 331 332 333 333 333 333 333 333 334 335 335 335 335 335 333 330 330 330 331 333 332 328 328 331 332 333 333 331 330 330 329 329 331 331 331 332 333 333 333 332 332 333 332 331 331 330 329 330 329 328 328 330 331 329 329 328 328 329 329 330 330 329 328 327 327 327
320 325 321 316 316 316 321 324 322 323 321 319 325 327 319 316 321 324 325 329 331 331 332 332 331 331 331 332 331 330 331 332 333 333 334 334 333 333 334 334 335 336 336 336 336 334 332 331 330 331 334 335 332 329 329 331 332 333 333 333 333 333 332 332 332 331 331 332 332 333 332 333 333 332 332 331 329 329 329 330 329 329 330 330 329 328 328 328 330 330 329 329 328 327 327 327 327
318 319 315 317 320 320 324 325 323 325 320 317 325 325 319 321 325 327 329 330 329 330 331 331 331 330 330 331 332 331 331 332 333 334 335 336 336 336 337 337 337 337 336 337 336 333 331 331 331 331 334 337 335 332 328 327 329 331 332 333 334 334 334 333 332 332 331 331 332 333 333 333 333 332 332 331 330 329 330 329 329 329 330 329 328 327 328 329 330 330 328 328 328 327 327 327 327
315 316 315 317 323 326 333 333 325 320 319 325 328 322 324 328 327 328 330 329 329 330 331 330 330 330 329 329 330 330 331 331 332 333 334 335 335 336 336 334 334 333 333 335 334 332 331 331 332 333 335 337 336 335 332 329 328 330 333 334 334 333 334 334 333 332 332 331 332 332 333 333 333 332 332 332 331 330 330 328 328 329 330 329 326 326 328 329 330 329 328 328 328 327 327 328 328
314 318 317 317 321 323 329 331 324 317 320 329 326 319 325 330 327 328 329 328 327 328 329 329 328 328 328 328 328 329 330 330 331 331 332 333 333 334 333 330 328 328 329 331 331 331 332 332 333 334 336 335 334 335 335 332 330 329 332 333 333 332 332 333 334 333 332 332 332 332 333 333 332 332 332 332 331 330 330 329 329 329 330 329 326 326 328 329 329 329 328 328 328 328 328 328 329
314 319 320 319 319 317 319 323 323 322 322 321 318 320 328 329 326 328 328 326 326 326 327 327 327 327 327 327 328 328 328 329 329 329 330 331 331 333 333 331 330 329 330 331 331 332 332 333 334 334 335 334 333 334 334 332 331 330 330 332 333 333 332 333 334 333 333 332 331 331 332 332 332 332 333 332 330 330 329 329 329 330 330 329 326 327 329 330 330 329 328 328 328 328 328 329 329
315 318 320 320 320 317 316 318 319 320 320 316 315 320 328 328 327 328 326 325 325 326 326 327 326 326 325 325 325 325 326 327 327 327 329 329 328 329 330 331 330 331 331 332 332 332 332 332 333 333 334 334 334 334 333 332 332 332 332 332 333 334 333 333 334 333 333 333 332 331 331 330 330 331 333 332 330 329 328 327 329 330 330 329 327 327 329 330 330 329 328 329 329 329 329 328 328
314 316 317 320 324 323 320 321 321 318 318 319 319 320 324 328 328 326 325 325 325 326 326 326 325 323 323 322 322 322 323 324 325 325 326 326 326 326 328 329 329 330 330 331 331 331 330 330 331 331 331 332 333 333 333 332 332 333 333 332 333 334 333 334 334 334 334 334 332 331 331 330 328 329 332 333 331 329 327 327 329 331 331 330 328 327 329 329 329 329 328 329 330 330 329 328 328
313 313 315 316 322 327 325 323 324 324 323 320 320 322 323 326 327 324 325 326 325 325 324 323 323 321 321 320 319 320 321 323 324 324 325 325 325 326 327 328 328 329 329 329 330 329 329 329 330 330 330 330 331 332 332 331 331 332 331 330 331 333 333 333 333 333 333 334 332 330 330 331 330 328 330 332 332 329 326 327 330 331 331 330 328 329 329 329 329 328 328 329 330 330 329 328 328
317 313 316 316 316 322 323 317 318 324 322 314 318 327 325 324 326 325 324 326 325 324 323 322 321 319 319 318 317 319 320 322 323 323 324 325 326 326 327 328 328 329 328 328 329 329 329 329 329 330 330 330 330 330 330 331 331 331 330 329 331 333 334 333 332 332 332 333 332 329 328 330 331 330 328 330 331 329 326 328 330 331 331 330 329 330 330 329 328 328 328 329 329 330 329 329 329
319 315 316 315 312 318 323 320 321 324 319 314 320 329 326 323 328 326 324 326 325 323 322 320 319 318 317 316 316 317 318 320 322 323 324 325 326 326 326 327 328 328 328 328 328 328 329 329 328 328 329 329 329 329 329 330 329 330 330 329 330 333 333 331 331 331 331 332 332 330 328 329 330 330 329 330 331 329 327 328 330 329 330 330 330 330 329 329 329 328 329 329 329 329 328 328 328
316 315 315 315 316 320 319 319 321 319 317 318 321 325 324 325 328 326 326 326 325 323 320 318 317 316 315 314 314 315 315 317 319 321 322 323 323 324 325 326 327 327 327 328 328 328 328 328 328 328 329 329 328 329 330 330 329 329 329 329 329 330 330 330 331 332 331 332 333 331 329 329 330 330 330 330 330 329 328 329 329 327 328 330 330 330 330 330 330 329 329 329 329 328 328 327 327
313 315 315 316 324 325 318 318 320 317 320 322 322 324 326 326 326 327 326 325 324 322 319 316 315 313 313 312 312 312 312 313 315 317 318 319 320 321 322 324 325 326 326 326 326 327 327 327 327 327 328 329 328 329 330 330 330 330 329 329 329 330 330 330 331 332 331 331 332 330 328 329 330 329 328 329 329 328 328 329 329 327 327 330 330 330 330 330 329 329 329 329 328 328 328 327 327
314 319 320 317 318 319 317 318 318 318 324 327 325 326 326 324 323 323 323 321 321 320 317 314 313 311 311 310 310 310 310 311 313 315 316 318 319 320 321 322 324 324 325 325 325 325 325 326 326 327 327 328 329 330 330 330 330 330 330 330 330 331 330 328 329 331 331 331 330 329 328 330 330 329 327 327 327 327 328 330 329 326 325 329 330 329 329 329 329 329 329 328 328 328 328 328 328
319 327 327 321 318 319 319 318 317 320 324 324 325 328 326 323 320 318 317 316 316 316 314 312 311 310 309 308 308 308 309 310 312 313 315 316 318 319 319 321 322 323 324 324 324 324 325 325 325 326 327 328 328 329 330 330 330 329 329 329 330 331 331 329 329 330 330 330 329 328 329 330 329 328 327 326 325 327 329 330 328 325 326 329 330 328 328 328 328 329 328 328 328 327 328 327 327
Wind_Speed
3 5 8 10 8 7 4 3 2 2 2 0 3 1 4 6 3 4 7 6 1 2 5 7 4 8 9 9 10 8 6 3 4 3 4 10 24 24 19 19 23 28 29 29 30 28 28 27 27 26 25 23 21 20 19 20 20 19 20 21 22 22 21 19 19 18 18 18 17 17 16 16 15 14 13 13 13 14 14 14 13 15 17 21 26 28 27 26 25 23 21 21 21 20 19 20 20
4 6 9 10 8 5 3 3 1 3 4 2 3 4 4 4 2 5 8 6 3 6 13 18 17 16 14 13 10 7 7 5 2 7 12 22 29 23 19 20 23 26 27 29 29 28 28 27 26 26 25 23 22 20 20 20 19 19 20 20 21 21 20 19 19 18 18 18 17 17 16 16 15 14 14 13 13 14 13 14 14 15 17 21 26 28 27 25 25 24 22 22 21 20 19 19 19
5 7 10 10 7 5 3 3 1 1 3 3 5 4 3 3 6 8 10 7 10 13 13 12 11 10 7 7 6 4 3 4 7 14 19 25 28 26 21 20 23 24 26 28 28 28 28 28 27 26 25 24 22 21 20 20 19 19 20 20 20 20 20 19 18 18 18 18 17 17 17 16 15 14 14 13 13 13 13 14 15 17 19 21 26 28 28 26 26 26 24 23 21 20 19 18 17
7 8 10 9 6 3 4 2 2 4 2 4 4 5 4 4 8 8 10 7 14 12 8 6 7 7 6 6 5 5 2 2 8 15 22 25 24 25 23 22 24 25 26 27 28 28 28 28 27 26 25 24 23 21 20 20 19 19 20 20 19 19 19 19 18 18 17 17 17 17 16 16 15 15 14 13 13 13 12 13 16 18 20 22 25 27 28 28 27 26 25 23 21 19 18 16 14
9 9 10 8 4 1 2 2 3 4 4 4 2 5 5 7 8 7 10 4 10 7 5 6 4 6 9 7 2 3 4 5 8 12 20 24 22 24 24 23 25 26 27 27 28 28 28 28 27 26 26 25 24 22 21 20 20 19 19 19 18 18 18 18 18 17 17 17 17 17 16 15 15 15 14 13 13 12 11 13 15 17 20 22 24 26 26 27 27 26 24 23 21 19 17 14 11
10 9 9 5 2 1 2 2 2 2 5 5 2 7 7 7 7 7 15 10 4 9 9 7 6 8 7 6 4 8 6 3 7 11 18 22 23 23 23 25 26 27 27 27 27 28 28 28 28 27 26 25 24 23 21 20 20 19 18 18 17 17 17 17 17 17 16 16 16 16 16 15 15 15 15 14 13 12 10 12 15 17 20 22 24 25 25 25 26 25 24 22 20 18 16 13 10
11 9 7 4 1 1 3 2 4 3 5 6 4 7 8 9 8 6 13 10 3 9 8 9 14 12 5 4 6 7 3 1 5 9 15 19 22 22 22 25 26 26 26 27 27 27 28 28 28 27 26 25 25 23 22 21 20 19 18 17 16 16 16 15 15 16 16 16 16 16 15 15 15 15 15 14 13 12 10 11 14 16 19 21 23 24 25 25 25 24 23 21 19 17 15 11 9
11 7 4 3 1 2 3 2 3 4 4 5 5 9 11 14 13 6 8 5 3 5 8 13 14 8 1 3 4 3 3 4 3 7 14 18 21 22 22 24 25 25 26 27 26 27 28 28 27 27 26 25 25 24 22 21 20 19 18 17 16 15 15 14 14 14 15 15 15 15 15 15 15 15 15 14 13 12 11 11 12 14 17 21 22 23 24 24 24 23 22 20 18 16 13 10 8
11 6 2 2 1 1 1 1 4 4 4 6 7 12 17 21 18 9 7 6 2 5 11 13 6 3 4 4 4 3 5 5 5 10 14 17 21 21 22 23 22 24 26 27 26 27 28 28 27 26 26 24 24 23 22 21 19 18 17 17 16 15 14 13 13 12 13 14 14 14 14 14 15 15 15 14 13 12 12 11 11 12 16 20 21 22 23 23 23 22 21 20 17 14 12 9 7
9 4 2 2 2 0 2 2 4 3 5 7 8 16 21 23 18 10 8 4 5 8 10 8 1 6 9 5 4 3 4 4 7 13 16 18 19 19 20 21 20 21 24 27 27 27 28 27 26 25 25 24 23 22 22 21 19 18 17 16 15 15 14 13 12 12 12 12 13 13 13 14 14 15 15 15 14 13 12 11 11 11 14 19 21 22 22 22 22 21 21 19 16 13 11 9 7
5 3 2 3 2 1 3 3 4 4 6 5 10 22 24 23 16 7 5 4 7 7 9 7 4 12 10 4 4 3 6 6 9 14 17 18 17 17 18 19 20 19 22 26 27 27 27 27 26 25 24 23 22 21 21 20 19 18 16 16 15 15 14 13 12 11 11 11 11 11 12 13 14 14 14 15 15 14 13 12 11 11 13 17 19 20 21 21 21 22 21 19 15 13 11 10 8
3 1 3 3 2 3 4 2 4 6 8 4 9 16 14 14 10 4 4 6 5 5 7 6 9 15 7 2 5 6 10 11 12 13 16 17 15 15 15 17 20 21 23 26 27 27 26 26 25 24 23 22 21 20 20 19 18 17 16 16 14 14 13 12 12 11 11 10 10 11 11 11 12 13 13 14 15 14 14 13 12 11 11 14 17 19 21 21 21 23 22 18 15 13 12 10 8
4 2 5 2 3 3 3 2 4 5 6 4 6 7 4 6 3 5 5 6 3 4 4 6 15 15 4 2 9 11 13 14 13 12 14 15 13 13 13 15 19 23 25 26 26 26 26 26 25 24 22 20 20 19 18 17 17 17 16 15 14 13 13 12 11 11 11 10 10 10 10 10 11 12 13 13 14 15 14 13 12 11 10 12 15 18 20 21 23 25 23 18 15 13 11 9 8
5 3 4 1 1 2 2 2 3 2 5 6 6 7 4 1 2 7 10 7 1 2 4 8 18 11 5 6 9 16 16 16 15 13 14 12 12 11 11 14 20 24 25 25 24 25 25 24 24 22 21 20 19 18 17 17 17 17 16 15 14 13 13 12 11 11 11 10 10 8 8 9 10 11 12 13 14 14 14 13 12 11 11 12 14 16 19 21 24 25 23 19 16 13 10 8 7
6 3 3 1 1 0 2 3 3 3 4 6 6 10 3 3 3 6 8 5 2 5 8 11 17 4 6 11 10 22 21 17 17 15 16 13 12 11 11 13 20 24 24 24 23 23 24 23 22 20 20 20 19 19 18 18 18 17 16 16 14 14 13 12 11 11 11 10 9 8 8 9 10 11 12 12 13 13 14 13 12 12 11 12 13 15 18 22 25 25 23 19 15 12 9 8 7
7 2 3 1 1 1 3 3 2 2 5 6 7 9 2 5 7 6 2 6 8 11 8 7 11 4 8 12 10 27 23 19 19 17 19 15 15 14 13 14 19 23 23 24 23 23 23 22 21 19 19 19 19 20 20 20 19 18 17 17 15 15 14 12 12 12 11 10 10 10 10 10 11 12 12 12 12 13 13 13 12 12 11 12 13 14 18 23 26 25 23 19 15 12 10 9 8
5 3 2 0 2 3 3 4 2 1 5 7 7 6 1 4 10 9 4 10 15 11 4 3 5 5 9 8 10 27 23 21 22 21 22 18 18 18 17 17 19 21 20 23 22 22 22 21 20 19 20 19 20 20 21 21 20 19 18 18 16 15 14 13 13 13 12 12 12 12 12 12 12 12 12 12 12 13 13 12 12 12 11 12 14 15 18 24 27 25 23 19 15 12 9 8 7
6 2 2 2 3 4 4 6 4 2 3 7 6 5 4 3 6 8 7 9 12 8 4 5 2 2 8 8 16 26 21 23 24 24 25 22 22 21 20 19 19 20 19 22 21 21 21 21 21 20 20 19 20 21 21 21 20 20 19 18 17 16 15 14 14 14 13 14 15 14 13 12 12 12 11 13 13 13 13 12 12 12 12 13 14 16 19 24 26 25 23 20 16 12 9 7 5
7 3 2 4 4 5 5 6 6 3 4 9 8 5 5 3 4 5 4 2 5 6 5 9 11 11 11 15 23 23 21 25 25 27 27 26 26 24 22 19 20 20 18 21 21 20 20 21 21 20 20 20 20 20 21 21 20 20 20 19 18 17 16 16 15 14 15 16 16 15 13 12 11 11 10 11 13 14 13 12 12 12 12 14 15 17 20 24 25 25 24 20 17 14 11 7 5
8 4 2 6 6 4 10 12 15 16 9 9 7 4 5 5 6 3 6 3 2 3 4 7 13 16 18 25 27 23 23 25 26 28 27 27 27 24 21 19 20 18 16 18 19 19 19 21 21 20 20 20 20 20 21 21 21 20 20 20 19 19 18 16 15 15 17 16 15 14 12 12 11 11 10 9 11 14 14 13 13 12 13 15 16 18 20 23 25 24 23 21 18 15 13 9 6
5 6 4 5 5 4 14 16 16 20 14 10 6 3 5 7 7 5 11 6 2 5 10 9 13 20 25 29 28 24 24 25 27 28 27 27 25 22 20 20 19 14 12 15 16 17 19 21 21 21 20 20 20 20 20 20 21 21 21 21 19 19 18 16 16 17 18 16 14 13 13 12 12 11 12 11 11 15 15 14 14 13 13 15 16 17 19 22 24 24 23 21 18 16 14 11 8
2 6 7 5 4 4 13 12 10 15 15 12 6 2 1 4 6 5 10 6 3 6 9 11 14 19 23 26 27 26 24 26 29 28 27 26 24 23 21 19 16 12 11 14 17 19 20 22 21 21 20 19 19 18 19 19 20 20 20 19 18 18 17 16 16 17 18 16 15 14 14 13 12 11 12 12 11 14 16 15 14 12 13 15 17 17 18 20 22 23 22 21 19 16 15 13 10
3 5 6 9 10 8 13 11 10 13 11 10 5 3 2 1 5 1 4 5 2 3 6 10 14 17 18 21 25 25 25 28 29 27 27 25 25 25 23 19 14 13 12 12 19 23 23 23 22 21 20 19 17 16 16 17 18 18 18 17 17 18 17 17 17 18 18 17 16 15 15 13 11 11 11 11 11 13 15 15 14 12 12 14 17 18 18 19 21 22 22 22 20 16 14 12 10
6 5 5 11 14 13 20 19 17 15 13 12 6 4 4 2 4 3 5 7 2 2 5 10 16 19 20 22 22 21 24 29 29 27 27 25 25 25 21 17 15 14 11 11 18 24 25 25 24 22 21 21 19 18 17 17 18 18 17 17 17 18 18 18 18 19 18 16 16 16 15 13 11 11 11 11 10 12 14 15 14 13 12 13 17 19 19 19 20 21 22 22 20 16 13 12 10
6 6 7 11 13 17 25 24 23 22 19 17 8 5 7 8 4 2 8 11 4 1 6 11 19 22 24 23 20 21 26 29 29 28 28 26 23 22 20 17 16 16 13 12 16 24 26 25 25 24 23 23 21 21 20 18 18 18 17 17 18 19 19 18 18 18 18 17 16 16 15 13 12 12 11 11 11 13 14 15 14 14 13 13 17 19 19 19 19 20 21 21 20 17 14 12 10
7 10 10 9 12 20 21 18 20 21 19 14 6 5 10 10 4 4 10 9 2 2 7 14 20 23 24 22 20 24 27 28 28 28 28 26 24 22 20 18 17 16 16 14 15 23 26 25 27 26 25 24 22 22 20 18 18 17 17 18 19 20 20 18 17 17 17 17 16 16 15 13 13 13 12 12 13 14 14 14 14 14 14 14 16 19 19 18 18 18 19 19 18 17 15 12 10
5 9 10 11 16 20 15 13 16 16 14 12 8 7 11 8 4 4 8 4 4 7 11 16 20 22 23 21 21 25 25 25 26 27 27 27 26 24 22 19 17 17 17 15 14 19 24 25 26 27 26 25 24 22 19 19 19 18 18 18 20 20 20 18 16 17 18 17 16 16 15 14 15 14 13 13 14 14 13 13 13 13 14 15 16 19 19 18 18 18 18 17 16 16 15 13 10
7 6 7 10 12 13 11 10 12 10 7 12 13 6 8 4 3 9 10 4 7 11 15 18 21 22 22 21 22 24 24 24 24 26 26 26 26 26 24 20 17 18 19 16 13 17 22 24 26 28 28 25 25 20 17 21 22 20 19 19 20 20 19 18 17 19 19 18 16 16 16 16 16 15 14 14 14 14 13 13 13 13 15 15 17 18 19 19 19 19 18 17 16 15 14 13 11
8 5 3 7 6 4 8 6 8 9 3 10 11 2 7 3 6 13 9 7 11 15 19 20 22 23 22 22 23 23 23 24 24 25 25 24 25 25 24 20 17 18 19 18 15 17 20 21 23 27 28 27 25 16 13 21 23 20 21 21 21 20 20 19 19 20 19 18 17 17 17 17 17 16 15 15 15 14 13 13 14 14 15 16 17 18 20 21 21 20 19 18 17 15 14 13 11
6 1 1 4 6 4 6 2 7 8 3 9 9 2 7 6 12 13 4 10 16 17 20 22 24 24 23 23 23 23 23 24 24 24 24 23 24 24 23 20 18 17 17 20 19 19 19 19 22 25 28 29 26 18 15 19 21 21 23 23 21 21 21 21 21 20 18 18 18 18 18 18 17 16 16 16 15 14 14 14 15 16 17 18 18 19 21 22 22 21 20 19 16 15 13 12 11
3 1 1 1 1 4 7 2 6 5 3 10 9 2 8 8 15 12 2 13 18 19 22 23 24 24 24 24 24 23 24 24 23 23 24 24 24 23 22 20 20 16 15 19 20 19 18 19 21 25 27 26 23 23 22 17 17 21 24 23 22 22 23 24 23 20 19 19 19 19 19 18 17 17 17 16 15 15 14 14 16 17 17 18 18 18 20 21 21 19 19 18 16 14 12 11 10
2 0 3 3 2 5 9 5 4 4 2 6 7 2 7 9 15 10 1 14 19 21 23 24 25 26 26 26 25 24 24 23 23 24 24 25 24 23 21 20 20 16 14 16 18 18 19 20 23 25 25 22 20 23 24 20 18 20 22 23 22 23 25 25 22 21 20 20 20 19 19 19 18 17 17 17 16 15 15 15 15 16 16 17 16 16 17 17 18 17 16 16 15 13 12 12 12
3 2 2 3 1 2 5 5 2 3 3 1 3 3 5 6 7 5 7 14 20 20 22 26 27 27 27 27 25 25 25 25 25 25 25 25 24 22 21 19 19 15 12 13 15 18 22 24 25 25 23 21 21 23 23 22 21 19 20 22 23 24 26 25 23 22 21 21 21 20 20 19 18 18 18 18 17 16 16 16 15 15 14 14 14 14 13 12 13 13 14 14 14 14 14 14 14
3 2 0 3 2 1 2 4 5 2 4 2 3 3 7 9 7 2 7 8 19 21 24 28 27 26 27 27 27 26 27 27 26 26 25 25 24 22 20 20 19 16 13 13 15 20 23 24 24 23 21 20 21 21 21 23 23 21 20 22 24 26 26 25 24 23 22 22 21 21 21 20 19 19 20 19 18 17 17 17 16 14 13 13 12 12 11 11 11 12 13 14 15 15 15 14 14
3 0 1 2 3 2 2 3 3 1 1 3 2 4 11 11 11 9 7 3 16 21 24 26 24 24 24 25 27 27 27 26 24 24 25 25 24 22 20 20 19 16 14 15 18 21 21 22 21 17 17 18 18 18 19 22 23 22 22 23 25 26 26 26 25 25 24 22 21 21 21 20 20 19 20 20 19 19 18 17 16 14 14 14 14 13 13 14 14 15 16 16 16 16 15 13 13
7 4 4 1 2 3 4 5 6 2 1 4 6 7 11 11 11 9 6 3 9 13 15 18 18 19 22 23 25 27 26 22 21 21 23 23 22 20 19 19 18 16 16 17 18 19 18 18 15 13 14 16 19 21 19 19 22 23 24 25 26 26 26 27 27 26 23 22 22 21 21 21 21 20 21 21 20 19 18 17 16 16 17 17 15 15 16 16 16 17 17 17 17 17 15 13 12
5 3 2 1 1 4 5 5 6 1 3 6 9 10 11 11 9 6 6 6 1 6 12 15 17 19 20 21 24 25 22 18 17 17 19 21 20 19 18 19 18 17 18 18 18 17 16 14 12 12 14 16 22 24 20 18 21 25 26 28 28 27 27 28 27 26 23 22 22 22 22 22 21 21 21 22 21 20 19 18 17 17 18 18 16 15 16 16 16 17 18 18 17 16 15 14 13
3 2 1 3 2 4 6 4 6 1 5 5 5 8 10 10 7 7 8 7 7 5 5 13 18 21 21 23 25 18 13 13 12 13 16 19 19 19 19 19 19 18 18 18 18 16 15 14 13 14 15 17 24 25 22 21 23 25 27 27 27 27 27 27 26 24 23 22 22 22 22 22 23 22 22 22 22 22 21 20 19 19 19 18 17 17 17 17 18 18 19 18 16 14 13 13 12
3 2 2 3 3 3 6 5 6 1 3 3 3 6 8 9 5 5 8 6 9 15 8 4 12 18 21 22 18 9 9 9 8 10 14 16 18 19 19 19 18 18 17 16 17 16 15 16 16 17 17 19 25 27 25 26 26 25 24 23 24 26 26 26 25 24 23 23 23 23 23 23 24 23 23 23 22 22 22 22 21 20 19 19 19 19 18 18 19 19 19 18 16 14 13 11 11
3 3 3 3 2 0 3 4 6 3 2 1 5 4 4 7 4 4 6 6 14 24 22 14 7 11 15 12 8 7 11 11 9 11 12 14 17 18 19 18 18 18 16 15 17 17 16 17 18 18 17 19 24 27 26 25 24 22 21 21 22 24 25 24 25 25 25 25 25 25 25 25 24 23 23 23 23 23 23 23 23 21 20 19 19 19 19 20 20 20 19 18 16 15 14 13 12
2 4 5 4 3 3 5 4 5 5 5 3 6 5 4 5 6 4 4 8 18 26 27 25 22 11 4 3 6 10 12 12 13 14 14 16 16 17 17 17 17 17 15 16 17 16 15 16 18 17 17 21 23 24 23 22 23 24 23 23 24 25 25 26 28 29 29 29 28 27 27 26 25 23 23 23 24 23 23 24 24 22 21 21 20 20 20 20 20 20 19 17 16 15 14 13 13
3 3 8 8 6 6 5 3 5 5 5 4 6 5 3 4 6 6 7 9 15 20 22 23 27 24 14 5 3 6 9 12 15 16 16 16 16 16 17 17 17 15 15 17 16 15 14 15 18 18 19 22 23 22 23 23 26 28 27 27 28 28 29 30 32 33 32 32 30 29 27 26 25 23 23 23 24 24 24 24 24 22 22 22 22 21 21 20 20 19 17 16 15 14 12 12 14
1 5 9 9 6 5 3 2 4 3 1 3 4 6 2 4 7 8 8 9 12 14 18 20 24 25 21 13 7 7 9 10 13 15 16 15 16 17 18 18 17 15 16 18 15 15 16 16 19 21 21 23 23 23 25 26 28 29 28 28 29 29 31 33 34 32 31 31 30 28 27 26 25 23 23 23 23 24 24 25 24 23 21 22 22 22 21 19 18 18 16 15 14 14 14 13 13
3 6 7 7 6 6 5 5 4 2 2 4 5 4 4 2 5 8 8 7 11 14 16 17 20 22 22 20 12 9 10 10 11 13 13 12 12 12 14 16 16 15 17 17 15 14 16 18 20 22 23 24 24 24 27 28 29 30 30 30 30 31 32 32 31 30 29 29 29 28 27 26 24 24 24 24 24 24 24 25 24 23 22 22 22 22 21 19 18 17 16 15 15 15 15 14 13
7 7 6 7 6 7 5 6 4 0 2 3 6 3 5 1 5 7 7 7 10 13 13 14 17 20 21 22 17 12 10 9 10 12 13 11 10 10 12 14 15 16 18 16 13 13 17 20 22 24 24 25 25 26 28 29 30 32 33 34 33 33 32 30 28 28 28 28 29 28 27 26 25 25 24 25 25 24 24 24 23 23 23 22 21 20 20 19 18 17 16 16 16 16 14 14 14
6 5 5 3 3 4 4 5 4 3 4 2 7 0 5 1 5 6 6 5 6 8 9 10 15 20 20 20 19 15 11 8 11 13 15 15 14 15 17 18 19 21 22 19 15 13 16 20 24 25 25 26 27 28 29 30 31 33 34 35 34 32 31 29 28 28 28 28 29 29 28 27 27 27 26 26 26 25 25 24 23 23 23 22 20 19 20 19 19 17 16 15 16 16 15 15 15
4 5 5 5 6 5 4 3 4 3 1 5 7 1 5 1 3 4 4 3 4 4 6 8 13 19 19 20 20 17 14 9 8 10 12 12 13 14 15 15 15 16 19 20 18 16 16 20 24 26 26 27 29 31 32 32 31 33 35 36 34 31 30 29 29 29 28 27 28 28 28 28 29 28 27 26 26 25 25 24 23 23 23 23 21 20 20 20 19 17 16 16 16 17 16 15 15
5 5 4 4 3 4 4 4 4 4 2 6 5 2 8 3 2 2 4 4 5 5 5 7 10 15 17 19 20 19 17 13 9 7 5 3 5 9 10 8 10 13 11 13 16 19 19 19 23 26 25 24 25 28 30 32 32 33 34 34 33 31 30 30 31 30 28 26 26 27 27 28 28 28 27 27 26 25 25 24 23 23 24 24 23 21 21 21 19 17 17 17 17 17 16 16 16
5 4 5 5 1 2 1 3 1 2 3 3 4 3 6 1 2 1 4 5 5 6 7 8 10 13 15 17 19 19 18 15 13 10 7 6 3 3 8 8 9 12 11 13 15 18 19 20 23 25 23 22 23 24 26 29 30 32 33 32 32 32 31 31 31 31 29 26 25 25 26 26 27 27 26 27 27 25 24 24 23 24 25 25 24 22 22 22 20 18 17 17 16 17 17 17 17
5 5 5 5 3 3 2 3 0 2 2 2 4 2 3 0 1 4 5 4 5 7 10 12 13 15 16 18 19 19 17 15 14 11 8 7 6 2 2 5 6 9 12 14 15 15 16 18 19 22 25 26 26 26 26 25 23 26 30 31 31 31 32 33 33 31 29 27 25 24 24 25 26 28 27 27 27 24 24 24 24 25 25 25 24 22 23 23 21 18 17 17 16 17 17 17 17
3 4 6 5 5 4 3 3 3 3 2 2 2 2 3 2 1 4 5 4 7 10 12 14 16 17 19 21 21 20 19 15 13 11 9 7 6 3 3 2 3 6 8 10 11 11 12 13 13 16 22 27 29 29 29 25 19 18 23 28 30 30 31 32 33 32 29 27 24 24 25 25 25 28 28 28 26 24 23 24 25 25 24 24 24 23 24 23 21 19 18 18 17 17 16 16 16
1 2 6 3 5 6 3 3 5 5 2 2 3 2 1 1 3 5 6 6 9 12 13 15 16 18 21 23 22 21 20 18 15 12 9 8 6 4 2 3 5 6 6 7 9 9 8 9 11 13 17 23 27 28 28 26 23 21 22 24 27 31 32 30 29 29 27 25 23 23 24 24 24 25 27 28 26 22 22 24 25 23 22 23 24 24 23 23 21 20 20 19 18 17 17 16 15
1 2 4 3 4 7 5 2 1 3 4 1 1 3 2 1 3 5 7 8 8 9 11 13 14 17 20 21 20 19 19 18 16 13 11 9 7 6 4 4 5 7 7 8 9 9 9 9 12 14 17 21 23 24 23 24 23 22 23 24 23 25 28 28 26 24 24 23 23 22 22 23 24 24 26 27 25 22 21 23 23 21 21 23 24 23 23 22 21 21 20 19 19 18 18 17 16
4 3 5 2 3 5 4 2 3 4 3 1 2 3 2 1 1 2 6 7 7 7 8 11 14 17 17 16 16 16 15 14 13 12 11 9 8 7 6 6 7 8 9 10 11 12 11 11 11 12 14 18 20 21 20 21 22 20 21 24 24 23 22 23 24 25 25 24 23 23 22 22 23 23 24 24 23 22 22 23 22 21 22 24 24 23 23 21 20 20 20 19 19 19 18 18 17
5 5 4 4 3 1 1 3 2 2 3 1 3 3 1 0 1 2 5 6 6 6 8 11 14 15 14 14 15 15 15 14 13 12 10 9 9 8 7 6 6 7 8 9 10 11 11 10 11 11 13 14 15 16 15 17 21 21 22 24 26 28 26 23 23 24 24 24 24 23 22 21 21 20 21 21 20 21 23 23 22 20 22 25 24 23 21 20 20 19 19 19 19 18 18 17 18
4 4 3 2 3 4 2 2 3 4 3 2 2 2 1 0 1 2 6 5 6 7 8 10 12 14 13 13 15 16 16 16 15 14 13 11 11 10 9 8 6 7 8 8 8 7 7 7 9 10 12 13 12 12 11 13 18 21 24 25 26 30 30 26 24 23 23 22 23 23 21 20 20 20 20 20 21 22 23 24 22 21 24 25 23 22 21 19 19 18 18 19 18 17 17 17 18
1 3 2 0 2 2 2 1 2 4 4 3 3 1 2 0 2 4 7 6 5 9 9 9 12 13 13 14 15 16 17 16 15 15 14 12 11 10 10 9 7 7 7 8 8 9 8 8 8 9 8 9 9 9 9 11 16 19 22 24 25 27 29 30 29 27 24 23 22 21 20 21 20 20 21 21 22 24 25 25 24 23 24 24 22 21 21 19 19 19 18 18 18 17 18 17 17
3 3 3 3 3 4 3 1 1 2 4 4 5 3 2 2 3 5 8 7 8 11 11 11 11 11 12 13 14 15 16 17 16 15 14 13 11 11 10 9 7 7 7 8 9 10 10 10 10 9 8 6 6 8 8 9 12 16 19 21 23 25 28 31 31 27 24 23 23 20 19 21 22 22 23 22 24 26 26 25 24 24 24 22 21 21 21 20 20 20 19 18 18 18 18 17 16
Wind_Direction
165 159 157 159 155 153 155 134 122 346 83 212 267 234 256 228 241 289 290 295 33 10 75 79 72 112 112 111 130 120 71 120 169 146 174 152 147 150 147 156 165 167 169 168 170 170 169 168 167 167 166 164 161 160 162 162 161 158 155 157 159 160 158 157 157 156 154 153 153 152 152 152 149 144 134 125 115 109 107 106 104 106 104 108 119 123 122 118 115 115 115 113 112 110 105 104 105
166 162 159 159 158 164 181 115 106 344 58 304 272 185 253 280 253 246 249 262 160 132 91 84 82 86 92 96 98 84 51 37 142 135 138 147 153 155 148 158 164 168 172 172 172 171 170 169 168 168 167 165 163 163 163 162 162 158 155 156 159 160 160 158 158 157 155 154 155 154 154 153 151 145 135 126 118 113 110 109 108 108 105 110 120 123 124 122 120 121 119 117 115 112 108 106 108
168 166 162 161 159 158 140 73 93 78 90 242 271 225 267 300 238 235 234 220 145 127 105 93 76 65 75 84 48 57 78 51 125 133 140 153 160 159 155 162 167 171 176 175 174 173 171 169 169 169 168 167 165 164 164 163 161 159 157 156 159 160 161 159 159 158 156 156 155 156 156 155 153 146 137 129 121 118 115 116 114 111 108 112 120 125 126 125 125 124 123 120 117 114 111 110 112
169 167 168 168 160 131 98 58 130 123 151 218 265 259 243 236 245 251 244 196 141 131 110 91 58 47 57 88 69 70 109 143 140 140 147 157 162 160 159 165 171 176 179 177 175 175 173 169 170 171 170 169 167 166 165 163 160 159 157 157 158 159 160 160 160 158 157 157 156 157 158 157 154 148 141 134 127 123 121 121 116 115 115 115 121 126 128 128 129 127 125 122 118 115 112 112 114
172 171 170 173 166 131 93 88 113 130 199 198 233 261 233 225 251 277 278 230 160 179 134 115 75 76 76 81 74 103 144 163 154 151 152 157 163 162 161 168 174 178 180 179 176 176 174 170 171 172 172 171 169 169 166 163 160 159 157 156 156 156 158 159 160 159 158 158 157 158 160 159 155 150 145 141 135 129 126 120 115 117 119 121 123 126 129 130 130 128 125 121 118 116 114 113 116
173 174 174 170 150 139 109 113 146 205 226 184 198 267 256 245 257 289 296 301 207 199 163 147 139 115 90 64 78 131 137 155 158 159 156 158 164 165 164 171 176 179 181 179 177 177 174 172 172 173 174 173 172 171 168 164 161 161 158 156 155 156 156 156 158 158 159 159 160 161 162 162 157 153 149 147 141 135 129 117 116 119 122 125 127 128 131 132 131 129 126 122 119 117 115 114 120
171 174 180 162 70 75 113 151 187 228 244 192 196 259 261 269 272 304 303 309 129 172 170 160 140 118 102 88 99 129 151 224 153 153 158 158 164 169 168 172 177 180 181 179 178 177 175 174 174 175 176 175 175 174 170 167 163 162 160 157 156 157 156 155 155 157 159 159 162 164 165 164 160 155 154 152 145 141 135 122 120 123 125 129 131 132 134 135 134 132 128 123 121 117 115 116 124
170 175 175 140 33 29 107 155 215 219 246 224 228 258 265 275 278 297 296 287 148 169 152 150 134 104 119 142 112 135 177 180 155 155 158 158 163 170 171 174 179 180 181 180 178 177 176 176 176 177 178 178 178 176 173 169 166 164 162 159 158 158 158 156 156 157 159 160 162 165 165 165 163 159 158 156 151 147 143 135 130 128 127 130 134 136 138 140 139 135 131 125 122 119 116 121 130
168 180 159 126 158 44 57 255 253 237 256 263 258 262 267 273 279 281 273 286 209 152 144 155 134 94 149 109 84 127 165 172 173 161 159 160 161 166 173 178 182 181 181 180 178 177 177 177 177 179 180 180 179 178 175 172 169 167 165 163 162 161 161 159 159 160 161 163 163 164 163 164 165 162 161 161 157 154 151 147 139 132 127 131 137 139 142 144 143 139 132 127 124 122 123 132 139
168 182 156 105 127 79 308 263 252 254 252 260 266 265 268 270 278 269 250 262 174 146 144 170 131 122 130 82 68 130 167 175 177 163 162 163 161 166 174 181 185 185 183 181 179 178 177 177 178 180 182 182 182 181 178 174 172 171 170 168 168 167 166 164 163 165 166 166 165 162 161 162 164 163 164 164 164 163 159 155 147 138 128 131 139 142 145 147 147 141 134 131 128 130 138 148 145
174 185 130 85 84 182 238 257 259 269 263 281 283 271 271 265 265 257 216 162 169 150 139 156 118 118 111 70 79 145 161 166 183 169 165 165 163 170 176 181 186 192 189 183 180 177 177 177 179 182 184 185 184 184 181 177 175 175 174 175 175 173 170 170 170 172 171 168 165 161 161 162 163 164 165 166 166 168 168 163 155 147 133 132 141 143 146 148 148 144 137 136 136 144 156 157 145
188 188 90 97 141 191 205 249 265 280 284 287 275 274 273 252 239 207 156 136 172 161 155 171 146 128 95 53 123 153 158 164 184 177 170 167 167 173 179 183 187 194 190 183 179 176 177 178 180 183 185 187 186 185 183 178 177 178 178 181 180 177 175 176 177 179 177 172 168 162 162 163 164 165 165 166 167 172 171 165 162 156 142 137 141 143 147 148 147 145 142 143 146 160 167 157 144
191 163 98 120 190 169 187 236 275 296 296 265 246 278 274 237 202 147 119 107 151 156 184 194 156 135 78 116 142 159 164 170 184 185 174 167 169 175 182 186 190 191 187 183 178 176 178 179 180 183 184 185 186 185 183 180 180 181 182 184 182 181 180 182 184 184 181 176 172 167 165 164 166 167 166 166 169 174 171 164 165 162 153 144 143 142 147 150 147 146 148 150 157 171 170 154 143
198 184 127 166 196 147 195 238 286 286 281 266 258 295 280 266 82 134 112 95 331 202 190 182 160 132 102 136 149 170 171 177 187 188 173 166 173 173 178 186 189 188 184 182 179 179 180 180 180 180 181 182 184 182 181 181 182 185 184 185 185 185 186 187 190 187 183 178 177 174 172 172 172 169 165 166 169 174 170 166 167 166 161 151 147 142 146 152 150 151 153 155 164 175 168 150 136
205 208 116 123 323 246 215 218 232 208 259 265 282 308 314 60 87 134 112 110 347 166 153 164 165 131 167 167 175 181 177 183 190 184 169 166 173 167 171 179 185 184 182 182 180 183 182 181 178 176 180 180 180 179 179 181 185 187 186 188 189 190 191 191 192 188 182 182 185 184 181 178 171 168 167 166 167 170 168 168 167 165 165 157 151 144 145 153 155 155 156 158 167 175 165 148 135
205 218 77 113 252 224 219 215 198 202 260 263 295 315 318 41 66 86 64 144 126 146 136 155 183 297 201 176 178 180 176 184 188 180 170 170 175 169 169 172 182 182 180 183 182 185 185 180 176 174 179 179 180 180 180 183 188 188 187 191 192 193 193 191 190 187 184 188 190 187 183 176 168 168 171 169 166 167 167 167 165 162 163 159 152 145 146 154 159 159 158 159 166 173 169 154 142
199 200 72 278 214 194 215 207 176 185 262 276 314 338 149 22 44 71 87 132 128 147 116 110 216 280 188 167 167 173 175 184 185 182 176 177 181 174 171 173 180 182 183 186 185 187 185 178 176 176 178 178 180 183 182 183 188 188 189 192 192 195 194 189 188 187 189 191 190 184 180 176 172 172 175 175 169 166 167 167 164 159 159 158 151 146 148 155 161 162 160 161 163 172 176 164 146
195 152 139 221 205 201 202 200 216 185 252 286 316 15 86 28 28 91 106 113 120 135 92 87 110 117 155 152 163 171 175 181 187 189 184 182 183 179 177 176 180 183 184 186 187 189 184 178 178 178 178 177 181 186 183 182 187 189 190 192 192 194 191 189 189 190 192 189 185 180 177 176 177 176 177 181 175 167 168 168 164 160 157 156 151 145 150 158 163 164 161 162 163 173 180 174 154
194 126 154 220 201 213 224 219 260 267 256 286 298 6 45 23 18 116 134 119 120 113 83 87 94 103 129 153 165 173 176 181 192 194 189 187 187 185 181 179 184 185 185 186 185 187 187 181 179 178 176 177 182 186 184 182 186 189 191 193 192 191 191 191 191 193 192 186 181 178 177 176 177 174 172 181 178 170 169 169 166 162 158 157 153 146 152 161 166 166 164 164 167 175 180 183 178
203 173 188 236 208 236 264 256 269 278 280 286 287 354 13 2 14 106 151 139 119 151 152 110 108 123 142 159 169 176 178 184 194 193 190 189 190 191 186 182 182 178 178 182 182 184 187 183 179 177 177 180 183 186 185 184 186 190 192 194 193 192 193 192 192 193 189 184 181 181 183 177 173 167 166 180 181 176 172 171 169 164 162 161 158 150 152 163 169 169 167 167 172 179 181 186 189
193 189 204 234 192 220 263 261 268 282 297 292 276 0 1 348 6 109 139 124 310 232 201 184 151 150 156 166 175 178 181 188 192 190 187 187 189 190 188 185 175 164 165 173 180 185 185 183 180 179 181 183 185 186 188 188 190 193 194 194 195 194 194 192 192 193 187 183 184 188 188 179 175 171 174 185 186 183 179 176 174 170 166 164 162 156 153 161 170 173 171 170 175 184 184 184 186
184 221 234 245 212 228 261 269 278 284 293 284 282 358 336 333 347 124 144 154 241 250 223 207 181 169 167 171 178 181 186 189 189 184 180 186 189 187 191 193 183 170 170 171 184 191 186 185 182 183 185 184 186 189 191 194 195 197 198 197 196 196 196 195 194 192 186 186 190 194 193 186 184 184 186 193 192 190 186 180 178 174 170 166 164 162 158 159 166 172 174 173 177 187 186 182 185
228 265 250 248 239 239 266 275 278 279 276 260 259 291 248 22 323 245 189 204 215 285 252 218 194 181 175 174 180 186 189 189 187 182 182 190 192 192 196 202 196 179 176 178 187 191 188 187 185 187 187 184 186 190 195 198 198 201 203 202 202 200 198 197 197 192 189 192 196 198 197 193 194 195 192 195 198 195 190 182 179 176 172 171 168 166 165 162 162 168 172 173 176 185 189 186 185
212 268 264 260 252 247 265 266 259 263 263 252 230 248 272 291 299 318 280 273 304 267 229 210 188 177 177 179 185 190 188 188 190 189 191 195 195 198 201 206 202 185 182 184 188 191 190 189 189 191 190 188 188 192 198 200 201 203 205 208 208 206 202 200 200 195 195 200 201 199 198 199 198 196 190 190 195 191 187 184 182 181 176 175 173 170 171 169 165 166 170 172 176 184 192 193 190
204 244 260 267 264 258 265 265 257 258 260 254 226 216 244 241 259 317 268 275 329 178 204 192 179 178 181 185 191 189 187 190 195 198 197 196 196 199 203 208 204 194 189 182 189 193 191 192 193 196 196 195 194 195 198 202 206 205 204 211 213 212 207 203 201 198 201 206 206 201 199 202 199 194 187 181 181 179 182 188 191 189 184 180 178 174 172 173 172 172 174 176 179 186 193 196 198
204 224 249 263 266 263 264 261 257 255 250 243 223 245 245 228 230 277 257 258 296 185 189 180 178 182 185 190 194 189 190 195 200 203 201 198 199 201 203 208 205 200 193 186 194 194 192 196 197 200 202 202 200 195 198 204 209 209 209 213 216 216 211 206 203 203 211 212 209 205 202 204 201 194 188 179 177 178 180 187 192 190 188 185 181 178 174 174 177 179 181 180 182 190 194 198 203
222 230 252 256 259 266 261 251 249 242 238 228 209 236 246 226 187 246 259 243 200 192 180 180 184 187 190 194 196 192 195 200 204 206 204 203 205 205 207 209 204 200 197 194 199 195 196 201 201 203 204 203 201 198 201 203 205 212 219 221 219 220 215 207 203 209 219 217 211 209 209 207 202 197 191 185 183 183 181 180 185 187 187 186 182 180 176 176 180 185 188 187 187 195 201 203 208
277 280 282 265 262 268 251 234 230 215 229 226 207 225 257 243 167 232 242 213 199 195 181 182 189 192 194 198 198 196 200 203 207 208 208 210 210 208 209 209 202 201 200 199 202 195 197 203 205 206 206 204 203 203 206 204 204 213 220 222 220 221 218 211 207 213 219 216 213 214 216 210 202 199 193 191 191 189 185 182 185 184 181 180 179 180 179 180 186 191 194 194 194 200 206 208 213
293 297 299 290 329 311 241 223 202 188 205 211 193 293 290 260 227 238 235 198 196 191 183 184 191 195 196 201 202 199 201 205 208 211 213 215 214 210 209 209 206 206 203 201 205 197 197 204 208 208 208 208 208 210 210 207 209 215 217 217 219 222 220 217 214 215 215 213 216 216 216 211 202 199 196 196 196 192 190 188 184 178 172 171 173 177 180 185 192 196 198 200 200 201 206 210 217
295 307 161 287 360 338 254 220 173 180 185 176 154 308 276 265 253 251 229 185 185 180 182 187 193 197 198 203 205 201 201 206 211 213 215 215 214 212 210 209 207 211 208 204 204 200 201 205 208 211 209 209 211 212 213 216 216 216 217 217 218 222 221 220 217 214 213 213 217 217 212 208 201 198 199 201 198 193 194 189 180 173 168 168 171 174 179 187 194 198 201 203 205 205 205 210 218
304 330 47 340 31 279 292 313 157 162 203 169 132 268 261 279 274 275 200 184 183 179 186 191 196 198 200 206 207 203 202 208 215 216 217 217 215 212 211 210 208 212 212 207 207 208 211 209 210 212 209 210 215 214 214 223 227 220 219 219 218 222 223 221 218 214 214 215 216 216 211 206 203 199 201 204 200 195 195 186 177 174 170 173 177 178 181 188 192 197 201 203 207 208 206 210 218
20 41 303 333 183 258 311 322 167 155 209 172 131 232 268 279 280 302 124 185 187 187 193 196 201 200 201 205 207 207 207 210 217 218 219 219 217 217 216 213 212 213 213 212 215 217 215 209 208 210 211 217 225 223 219 221 227 225 221 219 218 222 225 224 220 217 219 218 216 215 211 206 204 202 201 202 200 197 193 185 178 177 177 179 182 184 185 188 190 194 202 207 213 215 214 216 220
11 116 230 280 239 277 315 328 301 162 146 233 165 203 275 278 278 16 93 182 191 192 202 204 205 203 201 204 207 210 210 213 217 218 220 219 219 222 220 216 214 214 217 218 221 218 211 208 208 211 216 223 227 227 224 221 223 225 222 219 217 219 224 225 222 222 223 221 218 215 212 208 206 203 202 202 200 200 199 194 188 184 184 185 185 188 191 194 197 201 208 218 224 224 225 225 224
315 7 123 259 263 295 286 320 329 116 130 241 216 203 249 261 267 1 66 169 191 197 209 210 208 206 202 204 208 211 213 215 216 216 218 218 219 221 217 214 213 217 222 216 217 217 213 213 215 218 223 230 231 226 223 224 225 225 222 219 217 218 222 224 223 224 224 222 221 216 212 210 208 206 205 204 202 203 203 203 203 196 190 194 193 192 197 204 212 217 219 225 225 222 227 230 228
211 212 84 304 322 326 273 278 293 1 83 229 223 250 251 261 272 283 3 105 196 209 216 213 209 207 205 207 209 212 216 218 217 216 217 216 216 216 212 210 212 218 219 206 209 216 216 219 222 227 233 234 230 220 217 222 225 227 222 218 221 223 225 226 225 224 221 220 221 217 213 212 212 210 208 208 205 203 205 208 211 203 198 202 198 197 203 206 212 218 222 225 222 217 221 227 228
168 163 142 158 309 288 266 249 259 277 284 241 223 236 248 257 267 277 343 34 192 203 208 211 211 210 209 209 212 216 217 218 219 217 216 215 214 210 206 207 211 213 207 201 206 212 216 218 218 222 228 226 214 202 204 216 223 225 221 219 223 225 227 228 228 227 222 219 220 217 214 214 215 214 211 211 209 208 208 212 211 203 203 205 199 200 206 207 210 216 220 222 219 214 212 214 219
151 133 124 195 247 278 280 265 281 254 181 248 225 218 243 250 257 288 338 0 57 157 166 185 202 213 215 212 217 219 216 217 219 218 214 211 209 204 203 205 207 204 198 202 208 211 214 207 200 205 209 213 203 187 184 201 217 221 219 218 220 222 225 227 229 230 225 219 218 217 217 217 217 216 214 213 214 213 213 212 208 202 205 208 205 208 210 209 210 214 218 216 214 215 214 213 212
126 136 188 289 240 258 273 266 296 247 171 256 221 203 240 246 264 331 359 9 359 5 161 186 200 208 214 218 221 215 203 210 213 212 210 206 205 201 201 203 201 197 196 204 210 215 217 198 193 204 200 200 197 181 171 181 202 216 218 220 221 223 226 227 229 230 224 218 216 217 220 220 219 218 216 214 215 217 217 215 210 206 208 210 209 210 210 210 211 213 216 214 210 213 221 220 212
106 120 151 267 245 280 293 283 298 269 168 267 158 168 242 266 285 0 23 32 24 21 20 258 227 216 217 221 221 194 172 192 190 198 202 201 204 199 196 198 196 196 200 208 211 217 217 198 200 211 201 192 189 183 177 176 187 204 214 220 224 227 228 229 230 228 222 218 216 217 220 220 220 220 218 215 214 216 218 217 214 213 212 211 210 207 207 209 211 214 216 216 212 210 212 215 216
117 134 154 252 244 41 292 285 305 336 22 266 134 133 285 313 335 56 52 54 46 35 33 23 339 245 235 233 230 201 187 186 176 184 190 188 194 190 189 194 193 196 202 206 208 209 205 198 205 212 205 193 186 187 187 180 182 193 205 215 222 227 229 228 228 226 221 218 216 215 217 219 220 221 219 216 215 215 217 217 217 218 215 214 214 209 206 209 211 215 217 216 216 215 210 208 215
237 177 179 234 231 196 227 272 322 346 1 30 94 60 335 335 353 357 358 44 47 33 32 30 21 8 309 258 243 224 201 195 194 188 182 182 185 184 187 193 193 197 200 201 201 196 191 197 208 212 205 194 188 191 194 189 187 191 199 208 215 221 225 225 223 222 220 218 216 214 216 217 220 222 220 217 216 216 217 216 217 219 217 217 219 215 212 212 213 215 217 217 217 219 217 213 215
284 222 201 220 228 222 235 306 6 33 9 0 77 72 306 320 6 349 335 25 41 30 31 26 20 29 41 67 180 208 189 192 199 192 182 180 180 179 183 189 195 198 197 199 198 189 190 199 208 210 204 197 193 193 196 196 196 196 198 202 206 211 215 217 218 219 218 217 215 215 216 218 221 222 220 217 216 216 216 216 216 217 218 219 220 220 218 216 216 216 216 217 218 219 220 221 223
279 235 205 211 216 203 189 85 54 77 316 331 71 111 201 333 10 350 336 19 33 29 35 29 24 30 36 48 89 145 154 162 173 177 177 175 174 176 182 190 201 202 196 199 200 194 195 201 209 212 206 202 199 195 197 201 203 203 204 205 206 208 209 212 215 219 219 218 217 216 216 219 222 221 218 216 216 215 215 216 218 217 217 218 217 219 221 218 218 218 216 216 216 217 219 222 227
228 238 195 186 178 177 165 105 95 183 213 336 6 97 119 19 355 332 331 20 29 27 33 31 30 32 35 42 60 107 129 142 153 161 166 168 173 181 191 197 204 204 199 206 210 202 198 200 211 218 212 208 206 201 200 204 208 212 214 214 214 215 214 213 215 218 221 221 219 218 217 220 222 220 217 217 217 215 215 217 218 216 214 214 213 218 222 219 218 219 216 214 212 215 219 222 227
239 233 177 177 170 161 149 105 108 105 82 336 317 48 91 304 306 334 356 30 24 21 26 28 31 32 38 43 47 69 102 128 143 151 156 162 174 187 199 202 201 202 204 212 217 210 204 202 211 221 218 212 211 208 205 206 212 217 220 220 220 220 220 219 219 220 221 222 220 219 218 220 222 220 216 217 217 216 216 216 216 214 211 212 213 219 223 220 217 219 217 216 214 212 216 222 228
234 194 118 89 74 92 96 101 113 46 67 221 267 42 104 274 313 348 8 26 12 9 18 23 31 32 36 43 48 56 70 102 134 150 158 166 179 190 199 203 202 204 207 213 216 211 206 204 213 223 223 217 216 216 213 211 215 220 224 226 226 226 225 224 224 223 223 223 222 221 220 221 222 219 215 215 216 217 216 215 215 213 211 212 214 220 225 222 218 220 222 221 219 214 212 219 224
153 126 95 55 36 42 46 61 96 74 16 246 255 244 100 130 315 351 9 17 358 2 22 25 30 32 31 36 44 50 55 74 119 149 162 175 190 200 210 217 222 224 218 216 221 223 217 211 215 223 225 223 223 223 222 219 220 223 227 228 230 233 232 230 229 228 228 226 224 224 223 223 222 216 213 215 216 216 216 216 215 213 211 213 216 220 226 226 220 220 223 221 219 216 212 215 219
104 111 112 96 12 17 29 356 47 100 251 259 251 65 76 104 254 346 29 34 18 13 31 32 32 34 34 38 42 46 51 59 74 98 125 157 200 215 224 247 295 299 262 232 233 236 231 221 219 225 229 229 228 228 228 226 226 228 231 232 234 237 238 235 233 232 232 232 230 229 227 228 226 218 212 215 217 215 216 218 216 215 213 214 217 219 222 224 221 220 223 220 218 217 215 216 218
108 115 99 106 38 21 31 298 8 162 236 231 195 102 66 85 227 79 48 35 26 30 44 50 50 47 45 46 47 47 51 54 54 57 58 41 20 249 230 237 288 298 267 242 240 242 242 233 224 227 235 237 233 234 236 234 235 237 238 239 240 242 242 240 237 236 236 237 238 238 234 233 235 229 219 216 217 216 216 217 217 217 215 215 217 218 218 218 217 218 222 220 217 216 217 219 220
145 144 124 129 125 103 212 260 197 212 250 220 208 142 82 261 229 100 81 37 21 39 51 58 59 57 56 54 50 47 46 48 48 49 55 47 35 9 256 230 243 255 252 254 254 256 261 255 242 238 241 240 235 235 237 240 246 248 245 246 247 247 247 244 241 240 240 242 242 242 240 236 237 238 230 220 217 217 218 218 219 218 216 216 217 216 214 213 212 215 219 220 218 215 218 221 221
167 156 130 140 148 141 194 210 166 195 220 286 291 83 117 207 162 88 87 59 44 48 51 55 53 51 57 57 51 46 42 42 42 40 43 38 30 23 13 351 285 271 279 289 289 284 280 274 269 262 255 250 242 237 237 238 246 249 249 250 250 251 250 247 245 243 243 245 245 245 244 239 238 240 238 229 221 218 220 222 221 218 213 215 217 214 212 211 210 212 214 216 217 214 215 217 219
238 137 105 136 178 144 140 181 174 175 150 17 2 83 111 170 106 73 74 77 64 59 54 52 48 44 50 50 45 44 46 45 42 35 29 21 10 358 356 345 322 311 310 322 330 325 307 285 277 273 266 257 249 245 244 245 250 250 247 247 250 254 252 247 245 244 244 246 247 249 248 245 244 243 241 237 228 221 224 227 225 219 212 214 214 211 211 210 209 210 210 212 213 211 210 213 216
204 124 143 195 166 124 119 181 183 99 115 44 358 122 92 63 95 65 68 82 73 63 58 55 49 45 44 40 37 41 46 48 46 41 34 25 14 3 355 343 330 328 321 320 328 331 326 309 292 280 268 259 252 250 249 247 252 254 248 243 245 253 253 249 250 250 249 250 250 251 255 253 249 243 240 237 230 225 228 229 226 222 216 212 208 208 210 209 208 209 208 209 210 208 208 212 216
121 170 188 159 79 89 109 132 15 45 118 244 353 111 120 52 154 92 80 88 82 66 60 54 46 42 38 29 29 34 38 42 46 47 44 36 26 11 1 348 338 343 337 324 319 317 314 309 306 301 286 272 260 255 252 248 248 252 253 248 245 249 254 257 259 255 250 250 250 254 263 259 248 241 239 234 228 229 233 229 225 224 220 210 204 206 208 205 206 207 206 207 208 207 208 213 216
123 162 158 116 113 134 103 118 122 100 137 171 23 49 91 49 223 146 108 109 106 76 56 51 43 37 30 20 18 21 24 29 34 36 35 34 32 25 16 358 340 349 348 337 326 317 310 304 304 304 297 291 278 268 263 258 256 257 258 254 248 248 252 258 259 255 253 251 250 257 265 256 241 236 236 234 231 231 233 229 222 221 219 208 200 202 202 201 202 203 204 207 206 205 209 214 215
59 85 54 69 136 155 163 140 148 152 159 154 83 21 286 207 318 102 102 108 115 92 65 57 48 37 27 17 12 10 12 17 20 20 20 22 26 25 23 15 1 2 3 2 0 347 339 333 323 313 301 298 297 288 275 263 260 260 258 255 251 248 249 254 257 257 258 257 254 259 259 244 233 231 228 228 230 230 228 224 216 214 214 205 195 197 199 199 202 202 204 207 207 208 211 214 215
66 79 57 336 83 109 149 104 111 135 147 154 127 138 234 105 12 62 75 58 75 90 79 64 53 38 25 17 15 9 5 9 13 14 13 12 14 14 17 15 4 357 357 3 9 6 5 8 4 355 332 306 296 292 284 269 263 262 259 256 256 253 250 252 256 258 260 259 258 259 249 232 226 226 223 222 226 227 224 218 211 209 211 204 196 197 199 200 201 200 202 206 208 211 212 211 213
133 123 131 157 125 115 127 156 290 92 117 156 147 152 184 79 58 70 71 53 52 71 79 71 55 41 26 18 19 15 9 10 11 10 9 6 2 3 8 8 356 347 343 344 349 349 351 355 356 357 352 332 298 274 266 267 268 271 269 263 259 255 251 252 254 257 259 257 256 257 243 226 220 219 219 222 225 225 218 211 208 207 206 204 200 200 200 200 200 198 199 204 208 211 212 212 212